Lapse_Rate
1.9 1.8 1.5 1.3 1.3 1.7 -0.1 0.5 6.3 4.7 2.0 5.4 3.8 6.5 6.5 6.9 6.5 6.3 6.5 6.5 6.5 6.5 6.5 6.5 6.5 6.5 6.5 6.9 6.8 6.5 6.5 6.5 6.5 6.5 6.5 6.5 6.5 6.5 6.5 6.5 6.5 6.5 6.5 6.5
2.0 1.8 1.6 1.5 1.8 2.3 -1.1 0.9 2.6 2.3 0.8 6.5 6.5 6.4 6.5 6.5 6.5 6.5 6.5 6.5 6.5 6.5 6.5 6.5 6.5 6.5 6.6 6.7 6.5 6.5 6.5 6.5 6.5 6.5 6.5 6.5 6.5 6.5 6.5 6.5 6.5 6.5 6.5 6.5
2.4 2.0 1.8 1.2 1.6 2.2 -0.9 -1.3 6.5 1.3 2.2 3.9 6.0 6.5 6.5 6.5 6.4 6.5 6.5 6.5 6.5 6.5 6.5 6.5 6.5 6.5 6.5 6.8 6.7 6.9 6.7 6.5 6.5 6.5 6.5 6.5 6.5 6.5 6.5 6.5 6.5 6.5 6.5 6.5
2.5 2.2 2.0 1.8 1.6 2.2 -1.6 -0.5 4.8 2.5 6.5 5.4 6.4 6.2 6.5 6.5 6.5 6.2 6.1 6.5 6.5 6.5 6.5 6.5 6.5 6.5 6.5 6.6 6.9 6.5 6.5 6.5 6.5 6.5 6.5 6.5 6.5 6.5 6.5 6.5 6.5 6.5 6.5 6.5
2.9 2.5 2.3 1.8 1.8 1.9 -0.7 1.4 3.0 2.3 -0.3 -0.5 5.6 6.5 6.5 6.5 6.5 6.5 6.5 6.5 6.5 6.5 6.5 6.5 6.5 6.5 6.5 6.5 6.5 6.5 6.5 6.5 6.5 6.5 6.5 6.5 6.5 6.5 6.5 6.5 6.5 6.5 6.5 6.5
3.3 2.8 3.1 2.7 2.2 1.2 0.3 2.2 4.4 4.3 4.3 3.6 6.5 6.5 6.5 6.5 6.5 5.9 6.5 6.4 6.5 6.5 6.5 6.3 6.6 6.4 6.4 6.4 6.5 6.5 6.5 6.5 6.5 6.5 6.5 6.5 6.5 6.5 6.5 6.5 6.5 6.5 6.5 6.5
3.4 3.5 3.3 3.5 3.3 2.4 0.0 1.7 2.7 3.3 6.5 6.6 6.5 6.1 5.9 6.5 6.4 6.4 6.2 6.0 6.2 6.0 5.7 4.9 5.8 6.3 6.2 6.4 6.4 6.4 6.5 6.5 6.5 6.5 6.5 6.5 6.5 6.5 6.5 6.5 6.5 6.5 6.5 6.5
3.2 3.5 3.7 3.7 3.4 3.4 -0.3 0.1 1.7 2.8 6.5 4.4 5.8 4.4 5.0 5.3 5.2 5.7 6.5 6.5 6.0 4.7 5.3 6.5 6.5 6.5 6.5 6.5 6.5 6.5 6.5 6.5 6.5 6.5 6.5 6.5 6.5 6.5 6.5 6.5 6.5 6.5 6.5 6.5
3.1 3.3 3.8 3.8 3.7 3.6 0.7 0.1 0.8 2.1 2.9 5.9 4.7 3.8 2.9 6.5 6.5 6.6 4.8 5.8 3.7 5.1 6.3 6.5 6.5 6.5 6.5 6.5 6.5 6.5 6.5 6.5 6.5 6.5 6.5 6.5 6.5 6.5 6.9 6.6 6.5 6.6 6.7 6.6
3.3 3.3 3.7 3.8 3.8 4.0 1.8 1.2 1.4 1.5 1.1 4.0 3.3 3.4 5.2 1.8 1.6 6.5 3.0 4.0 4.0 4.7 6.5 6.5 6.5 6.5 6.5 6.5 6.5 6.5 6.5 6.5 6.5 6.5 6.5 6.5 6.5 6.5 6.8 6.5 6.5 6.8 6.9 6.9
3.4 3.4 3.7 3.7 3.9 3.7 2.3 1.3 2.3 1.5 -0.1 3.7 4.2 5.2 3.0 2.8 1.0 6.5 1.6 5.5 4.5 4.9 6.5 6.5 6.5 6.5 6.5 6.5 6.5 6.5 6.5 6.5 6.5 6.5 6.5 6.5 6.2 6.5 6.5 6.4 6.9 6.8 6.6 7.1
3.9 3.7 3.7 4.1 3.9 3.9 3.7 1.7 2.5 3.0 1.5 3.1 4.6 5.9 5.8 4.5 2.8 1.5 0.3 2.5 -0.3 6.3 6.5 6.5 6.5 6.5 6.5 6.5 6.5 6.5 6.5 6.5 6.5 6.5 6.5 6.3 4.9 5.1 5.5 5.6 5.8 6.6 6.1 6.5
4.5 4.1 4.0 4.3 3.9 3.6 2.6 1.4 1.3 2.1 1.7 2.8 3.7 3.5 5.0 4.9 4.8 3.6 1.2 1.8 1.3 3.2 2.2 5.5 6.4 6.5 6.5 6.5 6.5 6.5 6.5 2.1 6.5 6.5 6.2 5.4 5.8 4.7 5.9 5.1 4.6 5.4 6.0 5.4
4.6 4.3 4.3 4.3 3.7 3.0 2.7 1.7 1.9 2.0 2.1 2.8 3.0 5.6 5.1 4.7 5.1 5.3 4.1 3.0 3.5 2.2 6.9 6.0 6.5 6.5 3.8 6.5 6.4 6.5 5.2 6.0 6.5 6.5 5.1 3.2 2.9 3.4 4.2 4.4 4.5 4.1 3.8 4.0
4.8 4.3 4.4 4.5 3.8 3.3 2.2 1.8 2.4 2.3 1.6 3.0 2.0 4.9 5.1 4.9 5.0 5.6 5.2 4.7 3.5 6.6 5.9 6.4 6.5 4.1 5.3 3.4 5.9 6.5 3.8 6.5 6.5 6.5 4.4 2.9 2.3 1.9 2.1 2.2 2.7 2.7 2.3 2.4
4.7 4.7 4.6 4.4 3.7 2.7 2.1 2.8 2.8 3.4 2.3 0.5 6.4 3.4 2.1 4.6 5.5 5.8 5.1 5.0 4.1 5.9 3.9 3.4 4.6 3.0 3.8 6.5 6.5 3.9 0.0 -3.3 -2.1 1.2 -0.7 -1.9 -0.7 -0.1 -0.2 0.7 1.1 1.0 1.4 2.7
4.5 5.1 4.4 4.0 3.4 2.0 2.4 2.8 3.3 4.3 3.4 0.5 4.2 4.5 3.2 2.8 5.1 3.8 3.7 4.9 4.1 6.2 4.2 4.1 4.3 2.3 2.5 6.5 6.5 3.3 -1.7 -3.4 -5.1 -5.7 -2.0 0.4 -3.0 -0.2 -3.3 -0.8 -1.6 -0.2 -0.8 -0.1
4.7 5.7 4.3 3.8 2.8 2.5 1.9 1.8 3.8 3.8 3.2 1.7 6.5 6.4 4.3 4.1 3.0 3.7 3.5 3.9 5.8 5.8 4.4 5.5 5.3 4.1 2.2 6.5 5.2 -1.5 -4.9 -3.2 -3.8 -3.2 -5.7 -3.7 -5.4 -6.0 -4.0 -3.4 -2.7 -2.1 -2.3 -2.9
5.6 4.5 4.4 2.0 0.5 2.5 2.2 4.1 4.4 5.4 4.1 2.2 2.9 6.5 6.5 4.1 3.4 3.3 4.0 3.7 5.8 4.9 5.4 6.0 6.3 6.5 6.5 6.3 2.8 -0.6 -2.0 -0.1 -0.9 -3.7 -4.5 -6.0 -2.8 -2.1 -3.8 -2.9 -3.8 -2.1 -3.3 -4.1
4.0 3.0 1.8 0.6 0.6 3.6 4.7 4.1 2.0 2.4 2.1 0.7 5.1 3.0 6.5 3.8 3.9 4.0 4.6 3.9 6.5 6.5 6.3 5.6 6.5 6.5 5.5 2.3 -0.1 -1.4 -1.1 -3.5 -3.6 -2.8 -0.7 -3.9 -4.2 -2.6 -4.3 -1.7 -3.6 -2.3 -2.8 -3.2
3.4 3.0 3.4 1.2 3.5 3.7 3.4 5.5 3.8 1.6 4.6 4.5 3.5 2.7 6.0 4.0 6.3 6.5 5.4 6.3 6.3 6.5 6.5 6.5 6.5 6.5 5.5 -3.2 -2.2 -3.2 -2.0 -3.0 -6.4 -6.3 -7.2 -6.1 -4.2 -3.9 -3.6 -3.4 -2.7 -2.2 -1.8 -1.2
5.3 4.3 2.6 2.8 4.2 5.2 6.4 6.5 5.0 6.2 6.5 5.1 4.9 4.3 3.6 3.7 3.6 5.2 5.2 6.5 6.5 6.5 4.7 6.5 6.5 6.5 -0.6 -5.1 -5.4 -5.7 -4.3 -4.1 -6.3 -6.8 -5.0 -7.0 -4.7 -4.6 -4.6 -4.3 -3.7 -3.4 -2.3 -1.2
4.6 5.0 5.2 4.4 5.1 6.5 6.5 6.5 6.5 6.5 4.9 3.6 3.6 5.9 3.2 2.9 4.4 6.0 6.4 6.5 6.5 5.9 6.5 6.5 6.5 1.3 -2.6 -5.8 -8.1 -6.3 -8.3 -5.5 -5.3 -7.6 -8.0 -6.3 -4.5 -4.0 -3.7 -3.4 -4.0 -2.9 -3.6 -2.3
6.0 6.1 6.5 6.5 6.5 6.5 6.5 6.5 6.3 3.7 2.9 4.2 3.9 5.1 5.3 4.5 6.1 6.4 6.5 6.5 6.4 6.5 6.5 6.5 6.5 -1.0 -1.8 -6.4 -7.3 -4.1 -5.7 -4.8 -4.2 -3.5 -3.4 -3.0 -1.2 -1.4 -3.4 -2.9 -2.4 -2.7 -1.8 -0.2
6.1 5.9 6.5 6.5 5.4 3.8 3.4 1.4 2.0 2.6 2.9 3.4 4.9 5.7 5.9 6.5 6.5 6.5 6.5 6.5 6.5 6.5 6.5 6.5 1.1 -1.3 -5.3 -5.8 -5.2 -4.0 -3.8 -5.2 -4.6 -4.9 -3.0 -1.0 -0.9 -1.7 -2.9 -2.6 -1.2 -0.5 -0.9 -0.4
6.2 6.1 6.1 5.2 5.5 5.6 3.5 2.6 3.0 1.5 3.6 4.3 5.4 6.5 6.5 6.5 6.5 6.5 6.5 6.5 6.5 6.5 6.5 2.9 -0.1 -0.5 -2.8 -3.6 -3.1 -2.9 -3.0 -3.2 -3.4 -2.9 -1.2 -0.3 -1.5 -1.7 -0.7 -1.9 -1.2 0.5 0.7 0.8
6.1 6.1 3.8 3.6 3.4 4.3 3.1 3.0 2.3 2.5 5.5 6.5 6.5 6.5 6.5 6.5 6.5 6.5 6.5 6.5 6.5 5.5 3.8 3.4 1.9 1.0 0.8 -1.2 -0.9 -0.5 -0.7 -1.1 -1.3 -1.2 -0.6 -0.2 -1.8 -2.9 -2.6 -0.6 0.0 -0.1 1.7 0.1
Wind_Speed
39 40 42 42 37 32 11 3 4 8 6 5 3 4 4 7 6 8 4 5 3 3 5 7 4 3 2 7 7 5 5 3 4 3 2 3 3 4 6 4 2 1 4 0
39 40 42 42 38 26 1 3 1 5 6 5 4 5 5 5 10 11 7 8 6 5 6 4 5 5 5 7 9 4 6 2 5 3 6 5 5 6 4 2 3 4 5 3
37 38 41 44 42 29 4 3 4 4 5 3 4 3 5 6 6 5 5 6 5 5 6 4 6 7 5 4 10 7 2 1 2 4 2 5 5 6 3 5 2 2 3 8
37 37 38 42 43 30 4 4 1 4 4 5 4 4 2 6 7 6 10 6 11 5 6 8 8 7 7 3 11 6 3 5 4 6 6 4 5 3 6 6 3 4 8 6
34 35 35 38 42 20 4 3 3 3 1 2 5 7 4 5 5 3 6 3 8 5 4 3 4 7 4 3 8 6 7 1 4 4 9 4 6 7 5 2 3 7 12 4
30 32 32 33 35 18 4 3 3 3 4 4 4 2 3 4 6 4 2 2 2 4 2 5 8 7 7 4 5 4 4 4 3 3 7 2 4 4 5 3 6 2 4 3
25 28 28 27 28 20 3 1 2 3 2 3 2 2 2 3 5 4 4 3 3 4 7 7 3 3 5 5 6 4 2 2 1 2 2 4 2 3 4 9 7 7 9 6
20 23 25 24 22 17 4 2 2 2 1 2 1 4 2 5 5 3 2 2 2 6 4 0 3 2 5 3 3 4 2 1 2 2 2 1 5 1 2 1 2 5 3 5
17 20 21 21 19 18 3 2 0 3 3 3 3 1 2 0 3 7 3 3 5 5 1 3 2 1 4 5 7 5 1 3 2 3 3 7 1 3 1 1 2 3 4 4
13 15 17 19 17 17 4 2 4 3 3 2 3 2 2 2 1 1 4 6 7 4 2 3 2 2 3 1 2 3 4 3 2 2 1 4 2 2 2 4 3 3 2 3
10 12 14 14 14 14 5 1 6 3 2 3 2 2 2 2 2 3 4 3 4 4 4 3 2 1 3 2 3 2 3 2 2 1 1 5 4 3 4 2 3 3 3 4
8 9 11 12 12 9 8 1 1 1 3 3 0 1 2 4 6 4 3 5 3 2 1 2 2 2 2 3 2 3 3 4 3 5 2 1 2 3 2 4 3 2 2 4
8 8 9 12 9 5 4 1 1 2 2 3 2 3 3 5 3 4 3 2 3 2 3 0 1 2 2 1 4 1 3 3 2 3 3 3 3 3 5 4 4 2 3 3
8 7 8 10 7 3 3 1 1 2 2 2 4 1 4 5 3 2 3 4 2 3 0 1 1 1 1 2 2 3 4 5 4 5 5 3 2 3 6 6 5 3 3 3
7 7 6 9 5 2 6 2 1 2 3 3 2 1 0 3 3 3 3 4 2 2 1 2 3 1 2 1 2 3 6 7 5 5 8 5 4 7 6 5 4 2 3 5
7 8 6 6 5 9 3 2 1 2 2 3 2 0 2 2 1 3 4 3 2 1 2 2 2 2 3 2 3 6 6 3 5 4 4 3 5 4 4 6 4 2 2 4
6 8 1 3 6 4 3 3 2 3 2 3 3 3 1 1 2 1 1 1 1 1 2 1 1 1 3 2 4 6 5 5 3 3 7 4 2 4 4 5 2 2 3 4
6 5 3 8 9 6 2 1 3 3 3 2 1 3 2 1 1 1 0 1 1 1 2 0 2 1 2 4 8 4 2 7 3 7 3 4 6 5 2 1 2 1 4 4
3 5 7 4 2 1 1 5 5 3 2 2 2 3 3 1 0 1 2 2 1 1 2 2 2 2 5 9 7 6 8 9 8 6 6 4 5 6 4 5 3 3 4 3
11 3 2 1 2 7 8 2 3 3 3 2 3 2 2 2 1 1 2 1 2 2 2 2 2 4 13 9 9 6 9 7 14 6 1 3 4 7 5 6 4 4 3 4
2 3 2 1 4 2 1 1 2 1 2 3 3 3 3 1 3 3 2 2 1 1 3 3 2 4 5 4 6 5 9 11 6 4 4 5 5 7 6 4 5 4 4 3
4 4 4 2 2 1 1 3 2 4 4 2 4 2 2 2 2 3 0 2 2 4 1 2 3 5 6 2 3 2 7 11 7 3 8 5 6 6 5 4 4 4 4 4
2 2 4 2 1 1 6 6 4 2 4 4 3 2 2 1 0 2 2 2 4 1 1 4 5 4 4 5 3 2 2 7 8 5 4 5 4 4 5 5 5 5 4 5
4 5 6 6 5 5 5 4 3 2 4 7 3 3 2 1 2 2 4 2 2 1 2 7 3 4 5 3 2 5 5 6 8 7 6 6 6 5 5 6 4 4 5 5
4 4 6 8 5 1 2 3 3 2 5 4 3 3 2 1 3 2 3 1 5 6 5 3 3 4 3 3 5 6 8 7 6 5 6 6 6 5 4 5 5 5 4 4
3 6 3 1 2 2 2 3 3 4 5 2 2 3 3 4 3 3 7 5 7 3 3 2 3 4 3 3 4 3 4 6 5 6 6 6 6 6 4 2 3 4 4 5
6 4 3 3 1 4 5 5 4 7 6 4 3 7 6 3 3 4 5 5 2 1 2 1 2 3 5 3 5 7 7 6 6 6 6 5 4 4 3 3 4 4 4 4
Wind_Direction
5 3 2 2 3 357 31 54 45 330 357 53 40 48 25 13 353 5 19 5 360 313 357 26 55 107 192 21 319 22 12 347 75 200 200 41 224 166 180 136 247 119 121 51
6 4 2 2 2 11 47 72 359 342 33 61 9 12 5 58 5 12 360 4 15 336 4 79 58 47 29 37 25 19 342 36 104 37 336 318 222 222 182 111 97 208 124 186
10 8 4 2 1 5 80 72 27 349 38 57 88 19 12 1 9 20 29 24 353 352 13 353 26 8 356 356 11 4 307 289 352 161 224 142 188 203 174 146 130 195 163 142
13 12 10 4 3 2 77 37 241 186 342 355 25 59 24 359 7 5 4 17 14 356 14 4 8 1 332 17 359 349 52 32 351 295 269 253 162 134 167 192 199 163 165 111
15 14 14 12 5 5 73 89 79 11 179 315 46 6 347 14 321 59 339 47 330 24 74 123 290 354 1 351 323 13 347 83 343 290 341 202 92 20 14 10 50 108 119 106
17 18 16 18 18 20 65 351 4 102 307 14 62 276 281 301 338 304 16 323 54 359 321 283 266 245 264 254 313 345 31 354 5 301 337 355 52 17 335 77 46 12 192 83
18 20 21 21 25 37 97 305 93 66 295 80 178 278 276 281 303 214 308 23 99 257 315 285 235 242 259 267 267 220 65 352 330 283 327 210 76 47 47 102 64 50 78 59
20 21 22 23 23 29 72 347 63 84 353 201 341 335 280 326 347 341 259 305 215 297 298 323 341 342 3 305 209 193 167 107 333 148 65 7 206 6 86 122 130 60 85 36
17 21 23 22 20 19 72 35 83 93 114 286 197 209 156 274 316 348 301 350 324 355 284 63 102 158 228 309 334 18 138 99 85 324 196 197 137 154 291 224 271 93 83 49
14 13 21 22 19 13 57 10 22 90 103 258 106 134 172 155 68 261 310 335 349 3 38 65 77 294 187 302 279 330 340 6 165 254 249 289 164 169 210 137 188 120 81 60
11 6 11 21 19 13 35 303 23 99 139 277 153 141 119 20 72 118 269 29 342 15 51 89 274 89 271 47 228 186 173 143 217 48 177 260 155 100 206 111 109 99 72 35
346 3 1 3 24 13 6 15 14 86 134 229 326 323 79 159 182 146 344 168 185 59 56 11 27 317 17 166 276 343 305 186 201 201 221 173 161 144 123 91 109 50 21 21
325 347 0 351 8 26 46 205 305 68 59 327 42 239 186 98 128 154 114 307 186 21 207 67 266 273 116 222 252 174 256 163 198 46 277 190 145 111 133 128 122 104 52 7
313 331 354 347 358 62 104 87 279 104 124 103 273 109 108 127 104 131 141 151 58 124 246 247 247 219 126 244 232 202 199 125 185 266 301 343 331 188 149 134 122 101 8 334
300 309 340 338 355 67 108 112 121 121 123 220 265 10 76 113 117 170 152 147 127 178 167 191 227 270 62 303 37 250 189 186 168 221 184 159 208 155 145 137 144 71 344 332
287 297 325 345 332 139 93 6 271 225 122 84 330 53 22 5 131 164 162 167 175 236 167 232 142 129 121 218 236 249 208 200 170 197 140 112 109 124 142 145 159 188 238 274
271 282 350 3 154 132 142 185 207 163 96 86 325 316 276 175 75 51 79 59 206 197 246 208 189 264 142 191 235 248 211 148 135 123 111 26 275 202 153 122 193 305 287 280
257 275 112 134 118 112 92 45 117 110 90 78 140 270 348 190 162 89 136 117 180 207 236 306 181 8 85 261 239 252 165 128 115 177 72 155 118 100 126 130 109 208 268 271
222 143 137 92 63 173 179 119 70 65 140 182 138 173 228 356 352 94 20 100 96 220 204 230 135 223 233 231 216 198 186 181 182 142 118 113 149 183 195 187 195 200 267 252
134 115 103 275 225 127 122 59 36 14 319 41 212 130 190 108 87 4 86 36 216 222 235 92 177 257 264 251 222 198 184 163 135 113 197 172 215 194 183 203 194 196 236 270
96 191 194 118 150 104 91 233 130 276 272 199 223 179 153 260 130 179 176 195 200 114 231 171 249 261 251 291 247 197 163 163 177 137 127 145 145 166 164 205 216 217 243 243
173 134 90 136 141 82 127 227 327 192 226 155 156 191 123 143 136 114 238 159 58 239 117 77 261 251 260 273 250 241 153 148 141 122 133 139 133 142 151 190 228 230 232 272
88 141 150 142 142 234 198 205 254 239 170 170 160 145 138 91 180 79 107 141 222 59 55 237 237 264 276 232 175 126 92 122 130 120 119 134 147 140 176 212 239 253 264 262
178 179 206 193 187 233 197 190 184 182 125 145 125 108 138 164 112 119 171 182 81 20 259 235 249 261 286 193 181 126 174 158 155 160 160 168 175 195 212 218 225 218 251 266
198 192 215 208 215 154 146 124 118 137 136 126 110 89 121 142 129 183 94 69 248 214 233 234 257 278 263 198 181 172 177 177 170 165 167 186 181 194 219 231 233 224 248 263
222 213 211 184 111 167 178 184 165 150 142 98 84 123 149 209 160 145 212 157 226 243 223 252 305 308 266 204 174 189 170 177 164 169 178 184 181 191 213 226 250 248 231 249
209 213 210 160 170 184 179 174 165 152 145 176 148 181 200 103 182 227 191 212 227 270 290 298 271 288 299 218 178 175 171 174 178 163 175 178 165 150 138 244 258 228 237 232